[[{"header":{"parameterUnit":"m.s-1","parameterCategory":1,"la1":30.2991,"la2":30.254,"lo1":-89.0895,"lo2":-89.0444,"dy":0.0017,"dx":0.0017,"nx":28,"ny":28,"refTime":"2025-11-19T03:00:00:Z","depth":0,"parameterNumber":2,"parameterNumberName":"U-component_of_WINDS"},"data":[0,0,0,0,0,0,0,0,0,0,0,0,0,0,0,0,0,0,0,0,0,0,0,0,0,0,0,0,0,0,0,0,0,0,0,0,0,0,0,0,0,0,0,0,0,0,0,0,0,0,0,0,0,0,0,0,0,0,-0.4577,-0.4577,0,-0.4554,-0.4554,-0.4554,-0.4525,-0.4525,-0.4524,-0.4524,-0.45,-0.45,-0.4499,0,0,0,0,0,0,0,0,0,0,0,0,0,-0.4599,-0.4599,-0.4577,-0.4577,-0.4577,-0.4554,-0.4554,-0.4554,-0.4525,-0.4525,-0.4524,-0.4524,-0.45,-0.45,-0.4499,0,0,0,0,0,0,0,0,0,0,0,0,0,-0.4584,-0.4599,-0.4578,-0.456,-0.4558,-0.4554,-0.4554,-0.4553,-0.4526,-0.4525,-0.4524,-0.4524,-0.45,-0.45,-0.4499,-0.451,0,0,-0.4498,-0.4498,0,0,0,0,0,0,0,0,-0.4585,-0.4584,-0.4563,-0.4561,-0.4559,-0.4542,-0.4553,-0.4539,-0.4526,-0.4538,-0.4524,-0.4523,-0.4514,-0.4513,-0.451,-0.4509,-0.4508,-0.4498,-0.4498,-0.4498,-0.4498,0,0,0,0,0,0,0,-0.4586,-0.4584,-0.4568,-0.4563,-0.456,-0.4554,-0.4551,-0.455,-0.453,-0.4537,-0.4535,-0.4532,-0.4513,-0.451,-0.4509,-0.4508,-0.4498,-0.4498,-0.4498,-0.4498,-0.4518,-0.4519,0,0,0,0,0,0,-0.459,-0.4585,-0.4569,-0.4568,-0.4571,-0.4554,-0.4551,-0.4548,-0.453,-0.4527,-0.4533,-0.4531,-0.4511,-0.451,-0.4508,-0.4521,-0.4498,-0.4498,-0.4497,-0.4517,-0.4518,-0.4519,0,0,0,0,0,0,-0.459,-0.4589,-0.457,-0.4576,-0.4573,-0.4555,-0.4552,-0.4548,-0.4545,-0.4527,-0.4524,-0.4533,-0.4511,-0.4509,-0.4511,-0.452,-0.4497,-0.4497,-0.4516,-0.4517,-0.4518,-0.4546,0,0,0,0,0,0,-0.4591,-0.4589,-0.4592,-0.4576,-0.4573,-0.4572,-0.4552,-0.4548,-0.4545,-0.4542,-0.4527,-0.4523,-0.451,-0.4511,-0.451,-0.4519,-0.4497,-0.4515,-0.4517,-0.4518,-0.4544,-0.4548,-0.4551,0,0,0,0,0,-0.4592,-0.46,-0.4592,-0.4591,-0.4576,-0.4573,-0.4571,-0.4555,-0.4545,-0.4549,-0.4538,-0.4524,-0.4519,-0.4512,-0.451,-0.4519,-0.4515,-0.4516,-0.4518,-0.4542,-0.4547,-0.4551,0,0,0,0,0,0,-0.4617,-0.4598,-0.4589,-0.4592,-0.4584,-0.4568,-0.4571,-0.456,-0.4555,-0.4552,-0.4533,-0.453,-0.4535,-0.4527,-0.4519,-0.453,-0.4515,-0.4517,-0.4534,-0.4538,-0.4542,-0.4543,-0.4497,0,0,0,0,0,-0.4623,-0.4621,-0.4605,-0.4609,-0.4606,-0.459,-0.4587,-0.4576,-0.4567,-0.4564,-0.4553,-0.4545,-0.4542,-0.454,-0.4536,-0.4544,-0.454,-0.4549,-0.4553,-0.4556,-0.4557,-0.4562,-0.4566,-0.4524,-0.4524,-0.4524,0,0,-0.4634,-0.4624,-0.4624,-0.4614,-0.4606,-0.4606,-0.4587,-0.4586,-0.4585,-0.4564,-0.4565,-0.4557,-0.4547,-0.4553,-0.4554,-0.4546,-0.4568,-0.4558,-0.456,-0.4559,-0.4564,-0.4568,-0.4571,-0.4525,-0.4525,-0.4525,0,0,-0.4655,-0.4647,-0.465,-0.4644,-0.4634,-0.4624,-0.4625,-0.4611,-0.4605,-0.4607,-0.4591,-0.4591,-0.4585,-0.4579,-0.4576,-0.4599,-0.4586,-0.4599,-0.4616,-0.4621,-0.4625,-0.4627,-0.4636,-0.4639,-0.46,-0.46,-0.46,0,-0.4671,-0.4668,-0.4654,-0.4655,-0.4652,-0.4634,-0.4638,-0.4632,-0.4621,-0.462,-0.4612,-0.4606,-0.4598,-0.4603,-0.4609,-0.4606,-0.4608,-0.4599,-0.4625,-0.4628,-0.463,-0.4638,-0.4642,-0.4602,-0.4601,-0.4601,-0.4601,0,-0.4689,-0.4688,-0.4692,-0.4683,-0.4681,-0.4683,-0.467,-0.4669,-0.466,-0.4651,-0.4654,-0.4645,-0.4639,-0.464,-0.463,-0.4644,-0.4639,-0.4629,-0.4613,-0.4636,-0.4643,-0.4646,-0.4604,-0.4603,-0.4603,-0.4602,0,0,-0.4721,-0.4706,-0.4708,-0.4705,-0.4694,-0.4693,-0.4696,-0.4692,-0.4692,-0.4687,-0.4689,-0.4687,-0.4678,-0.4674,-0.4664,-0.4669,-0.4689,-0.4657,-0.4657,-0.4663,-0.4705,-0.4712,-0.4716,-0.4681,-0.4682,-0.4682,-0.4705,0,-0.4739,-0.4743,-0.4731,-0.4738,-0.4738,-0.4723,-0.4726,-0.472,-0.4713,-0.4713,-0.4705,-0.4704,-0.4692,-0.4689,-0.4694,-0.4685,-0.4697,-0.4684,-0.4683,-0.4684,-0.4685,-0.4719,-0.4726,-0.4748,-0.4708,-0.4709,-0.4709,0,-0.476,-0.4757,-0.4764,-0.4755,-0.4755,-0.4757,-0.4754,-0.4753,-0.4748,-0.4743,-0.474,-0.4729,-0.4733,-0.472,-0.4725,-0.4717,-0.4717,-0.4713,-0.4714,-0.4711,-0.4696,-0.4718,-0.4755,-0.4758,-0.4713,-0.4713,-0.4713,0,-0.4783,-0.478,-0.4785,-0.4782,-0.4772,-0.4775,-0.4771,-0.4765,-0.4764,-0.4761,-0.4761,-0.4759,-0.4757,-0.4756,-0.4746,-0.4737,-0.4753,-0.4739,-0.4749,-0.4749,-0.4751,-0.4751,-0.4788,-0.4753,-0.4753,-0.4753,-0.4753,0,-0.4804,-0.4808,-0.4795,-0.4797,-0.4803,-0.4792,-0.4798,-0.4793,-0.4788,-0.479,-0.4777,-0.478,-0.4766,-0.4767,-0.476,-0.4766,-0.4765,-0.4762,-0.4759,-0.4762,-0.4762,-0.476,-0.4758,-0.4754,-0.4753,-0.4753,-0.4753,0,-0.4829,-0.482,-0.4824,-0.4815,-0.4814,-0.4818,-0.4811,-0.4814,-0.4808,-0.481,-0.4811,-0.48,-0.4802,-0.4792,-0.4791,-0.4786,-0.4796,-0.4791,-0.4797,-0.4796,-0.4806,-0.4805,-0.4842,-0.4847,-0.481,-0.481,-0.4811,0,-0.4842,-0.4845,-0.4838,-0.4839,-0.4836,-0.4837,-0.4837,-0.4827,-0.4827,-0.4823,-0.4826,-0.4827,-0.4826,-0.4829,-0.4822,-0.4822,-0.4817,-0.483,-0.4817,-0.482,-0.4817,-0.4816,-0.4817,-0.4832,-0.4833,-0.4833,-0.4833,0,-0.4866,-0.4863,-0.4862,-0.4862,-0.4862,-0.4861,-0.4859,-0.486,-0.485,-0.4851,-0.4852,-0.4852,-0.4853,-0.4854,-0.4853,-0.4849,-0.484,-0.4838,-0.4841,-0.4843,-0.4846,-0.4844,-0.4804,-0.4837,-0.4836,-0.4836,-0.4836,-0.4836,-0.4885,-0.4889,-0.4885,-0.4886,-0.4884,-0.4883,-0.4886,-0.4881,-0.4882,-0.4882,-0.4876,-0.4879,-0.4877,-0.4875,-0.4873,-0.4876,-0.4869,-0.4872,-0.4873,-0.4874,-0.4876,-0.4847,-0.4875,-0.4875,-0.4875,-0.4875,-0.4875,0,-0.4909,-0.4906,-0.4908,-0.4906,-0.4908,-0.4901,-0.4899,-0.4901,-0.4904,-0.4902,-0.4903,-0.4906,-0.4908,-0.4902,-0.4903,-0.4907,-0.4903,-0.4907,-0.4906,-0.4906,-0.4881,-0.4879,-0.4911,-0.4911,-0.4911,-0.4911,-0.4911,-0.4911,-0.4921,-0.4927,-0.4923,-0.4929,-0.4927,-0.493,-0.493,-0.493,-0.4928,-0.4933,-0.4934,-0.4931,-0.4929,-0.493,-0.4932,-0.4931,-0.4931,-0.4938,-0.4935,-0.4911,-0.4907,-0.4904,-0.4902,-0.4938,-0.4938,-0.4959,-0.4959,-0.4959]},{"header":{"parameterUnit":"m.s-1","parameterCategory":1,"la1":30.2991,"la2":30.254,"lo1":-89.0895,"lo2":-89.0444,"dy":0.0017,"dx":0.0017,"nx":28,"ny":28,"refTime":"2025-11-19T03:00:00:Z","depth":0,"parameterNumber":3,"parameterNumberName":"V-component_of_WINDS"},"data":[0,0,0,0,0,0,0,0,0,0,0,0,0,0,0,0,0,0,0,0,0,0,0,0,0,0,0,0,0,0,0,0,0,0,0,0,0,0,0,0,0,0,0,0,0,0,0,0,0,0,0,0,0,0,0,0,0,0,1.2907,1.2907,0,1.2851,1.285,1.2849,1.2813,1.2812,1.2812,1.2812,1.2748,1.2746,1.2745,0,0,0,0,0,0,0,0,0,0,0,0,0,1.2979,1.2978,1.2907,1.2907,1.2906,1.2851,1.285,1.2849,1.2813,1.2812,1.2812,1.2812,1.2748,1.2746,1.2745,0,0,0,0,0,0,0,0,0,0,0,0,0,1.2938,1.2978,1.2908,1.2881,1.2878,1.2851,1.285,1.2849,1.2813,1.2812,1.2812,1.2812,1.2749,1.2747,1.2744,1.2737,0,0,1.2737,1.2737,0,0,0,0,0,0,0,0,1.294,1.2935,1.2886,1.2883,1.288,1.2839,1.2852,1.2811,1.2813,1.2837,1.2812,1.2812,1.2778,1.2773,1.2763,1.2734,1.2731,1.2737,1.2736,1.2735,1.2734,0,0,0,0,0,0,0,1.2943,1.2937,1.2885,1.2885,1.2881,1.2871,1.2865,1.2844,1.281,1.2835,1.2832,1.2827,1.2776,1.2765,1.2761,1.273,1.2737,1.2735,1.2734,1.2733,1.2693,1.2694,0,0,0,0,0,0,1.2951,1.294,1.2887,1.2883,1.291,1.287,1.2863,1.2852,1.281,1.2804,1.2827,1.2825,1.2769,1.2764,1.2759,1.2748,1.2735,1.2733,1.2732,1.2693,1.2694,1.2694,0,0,0,0,0,0,1.2953,1.2947,1.2889,1.2911,1.2903,1.2869,1.2857,1.2851,1.284,1.2804,1.2797,1.2823,1.2769,1.2762,1.2743,1.2746,1.2732,1.273,1.2693,1.2693,1.2694,1.2727,0,0,0,0,0,0,1.2955,1.2947,1.2945,1.2911,1.2902,1.2876,1.2857,1.285,1.2837,1.2834,1.2798,1.2792,1.2768,1.2747,1.2741,1.2742,1.2728,1.2692,1.2693,1.2694,1.2726,1.2729,1.2731,0,0,0,0,0,1.2958,1.2955,1.2945,1.2939,1.2899,1.2876,1.2871,1.2845,1.2838,1.2835,1.2811,1.2793,1.2747,1.2745,1.2739,1.2739,1.2692,1.2693,1.2694,1.2724,1.2728,1.2731,0,0,0,0,0,0,1.2988,1.295,1.2939,1.2926,1.2905,1.287,1.2865,1.285,1.2829,1.2827,1.2795,1.2787,1.2772,1.2753,1.2753,1.273,1.2717,1.2716,1.2743,1.2746,1.2749,1.2754,1.2726,0,0,0,0,0,1.2993,1.298,1.2947,1.2938,1.2929,1.2899,1.2888,1.2871,1.2847,1.2837,1.2813,1.2789,1.2769,1.2756,1.2736,1.2723,1.2715,1.272,1.2723,1.2725,1.2725,1.2718,1.272,1.2696,1.2696,1.2696,0,0,1.3004,1.2981,1.2974,1.2944,1.2926,1.2912,1.2892,1.2877,1.2866,1.2834,1.2816,1.2798,1.2769,1.2754,1.2745,1.2738,1.273,1.2726,1.2728,1.2727,1.2719,1.2721,1.2723,1.2697,1.2697,1.2696,0,0,1.3016,1.2998,1.2989,1.2972,1.2946,1.2926,1.2925,1.2893,1.288,1.2862,1.2839,1.2824,1.279,1.2771,1.2757,1.2764,1.2746,1.2758,1.2773,1.2766,1.2768,1.277,1.2773,1.2774,1.2758,1.2758,1.2758,0,1.3031,1.3011,1.2986,1.2974,1.2961,1.2935,1.2926,1.291,1.2877,1.2869,1.2861,1.282,1.2798,1.2779,1.2781,1.277,1.2767,1.2762,1.277,1.2771,1.2772,1.2775,1.2776,1.276,1.276,1.2759,1.2759,0,1.3032,1.3018,1.3014,1.2986,1.2973,1.2962,1.2935,1.2925,1.2909,1.289,1.2872,1.2846,1.2821,1.2815,1.2798,1.2793,1.279,1.2777,1.2763,1.2777,1.2779,1.278,1.2762,1.2762,1.2761,1.2761,0,0,1.306,1.3021,1.302,1.3008,1.2978,1.2965,1.2953,1.2931,1.2923,1.2902,1.2891,1.2864,1.2853,1.2837,1.2818,1.2812,1.2821,1.2799,1.2798,1.2805,1.2815,1.2825,1.2827,1.2809,1.2809,1.2809,1.2818,0,1.3067,1.3047,1.3026,1.3012,1.2999,1.2975,1.2964,1.2944,1.2927,1.2912,1.2892,1.2874,1.286,1.285,1.2844,1.2821,1.2822,1.282,1.2798,1.2797,1.2806,1.2828,1.2838,1.2848,1.2818,1.2818,1.2818,0,1.3073,1.3057,1.3043,1.3016,1.3009,1.3001,1.2979,1.2966,1.2943,1.293,1.2914,1.2895,1.288,1.2869,1.2848,1.2847,1.2837,1.2825,1.2824,1.2821,1.2809,1.2826,1.285,1.2852,1.2819,1.2819,1.2819,0,1.3096,1.307,1.3058,1.3048,1.3016,1.3011,1.2997,1.2974,1.2962,1.2943,1.2935,1.2914,1.2902,1.2886,1.2861,1.2854,1.2843,1.2829,1.2832,1.2833,1.283,1.2831,1.2854,1.2823,1.2823,1.2823,1.2823,0,1.3107,1.31,1.3069,1.3062,1.3053,1.3028,1.3019,1.3003,1.2983,1.2971,1.2948,1.2938,1.2906,1.2891,1.2871,1.2858,1.2852,1.2841,1.2836,1.2844,1.2845,1.2836,1.2835,1.2824,1.2824,1.2823,1.2823,0,1.3131,1.311,1.3096,1.3068,1.3061,1.3056,1.3031,1.3023,1.3005,1.2991,1.2986,1.2957,1.2939,1.2913,1.2886,1.2873,1.2863,1.2854,1.2872,1.2869,1.2874,1.2874,1.2891,1.2893,1.2862,1.2862,1.2862,0,1.314,1.3134,1.3106,1.3098,1.3086,1.3073,1.3062,1.3038,1.3027,1.3001,1.2996,1.2977,1.2961,1.2933,1.2909,1.2888,1.2879,1.2887,1.2876,1.2884,1.288,1.2881,1.2881,1.289,1.289,1.2891,1.2891,0,1.3158,1.3148,1.3134,1.3117,1.3106,1.3091,1.3074,1.3068,1.304,1.3029,1.3012,1.3,1.2974,1.2955,1.2933,1.2916,1.2899,1.2895,1.2895,1.2902,1.2913,1.2908,1.288,1.2894,1.2894,1.2894,1.2894,1.2893,1.3174,1.3169,1.3149,1.3135,1.3121,1.3106,1.3098,1.3081,1.3066,1.3046,1.3031,1.3015,1.2993,1.2961,1.2946,1.2933,1.2925,1.2924,1.2924,1.2925,1.2928,1.2916,1.2928,1.2928,1.2928,1.2928,1.2928,0,1.3191,1.3178,1.3166,1.3145,1.3134,1.3121,1.3103,1.3094,1.3081,1.3063,1.3048,1.3029,1.3011,1.2987,1.2967,1.2961,1.2953,1.2957,1.2957,1.2954,1.2935,1.2938,1.2964,1.2964,1.2964,1.2964,1.2964,1.2964,1.3199,1.3189,1.3178,1.3161,1.3147,1.3133,1.3124,1.3111,1.3097,1.3077,1.3064,1.3049,1.3028,1.3007,1.299,1.2983,1.2977,1.2984,1.2975,1.2958,1.2955,1.2951,1.2954,1.2983,1.2983,1.2995,1.2995,1.2995]}]]